New Roads False River Regiona, LA

9:31 AM CDT on October 20, 2019 (GMT -0500)
False River

Weather History for KHZR - June, 2019

Change the Weather History Date:

Saturday, June 8, 2019

  Actual Average (KBTR) Record (KBTR)
Temperature  
Mean Temperature 81 °F -  
Max Temperature 87 °F 89 °F 98 °F (1963)
Min Temperature 75 °F 69 °F 60 °F (2000)
Cooling Degree Days 16    
Growing Degree Days 31 (Base 50)    
Moisture  
Dew Point 72 °F    
Average Humidity 70    
Maximum Humidity 94    
Minimum Humidity 55    
Precipitation  
Precipitation 0.05 in - - ()
Sea Level Pressure  
Sea Level Pressure 29.75 in    
Wind  
Wind Speed 1 mph ()    
Max Wind Speed 7 mph    
Max Gust Speed -    
Visibility 8.7 miles    
Events Fog    
Averages and records for this station are not official NWS values.
T = Trace of Precipitation, MM = Missing Value Source: Averaged Metar Reports

Daily Weather History Graph

Daily Weather History Graph

Search for Another Location

Airport or City:

Astronomy

Jun. 08, 2019 Rise Set
Actual Time 6:02 AM CDT 8:07 PM CDT
Civil Twilight 5:35 AM CDT 8:35 PM CDT
Nautical Twilight 5:01 AM CDT 9:08 PM CDT
Astronomical Twilight 4:25 AM CDT 9:44 PM CDT
Moon 11:21 AM CDT (6/8) 12:16 AM CDT (6/8)
Length of Visible Light 15h 00m
Length of Day
14h 04m
Waxing Crescent, 33% of the Moon is Illuminated
Jun 8
Waxing Crescent
Jun 10
First Quarter
Jun 17
Full
Jun 25
Last Quarter
Jul 2
New

Hourly Weather History & Observations

Time (CDT) Temp. Heat Index Dew Point Humidity Pressure Visibility Wind Dir Wind Speed Gust Speed Precip Events Conditions
12:35 AM - - - N/A% 29.73 in 10.0 mi Calm Calm - 0.01 in   Clear
12:56 AM - - - N/A% 29.72 in 10.0 mi Calm Calm - 0.01 in   Clear
1:14 AM - - - N/A% 29.72 in 7.0 mi Calm Calm - N/A   Clear
1:55 AM - - - N/A% 29.72 in 7.0 mi Calm Calm - N/A   Clear
2:56 AM - - - N/A% 29.71 in 7.0 mi Calm Calm - 0.01 in   Mostly Cloudy
3:14 AM - - - N/A% 29.71 in 7.0 mi Calm Calm - N/A   Overcast
3:34 AM - - - N/A% 29.71 in 7.0 mi Calm Calm - N/A   Mostly Cloudy
3:54 AM - - - N/A% 29.72 in 7.0 mi Calm Calm - N/A   Overcast
4:36 AM - - - N/A% 29.72 in 7.0 mi Calm Calm - N/A   Overcast
4:54 AM - - - N/A% 29.72 in 7.0 mi Calm Calm - 0.01 in   Overcast
5:36 AM - - - N/A% 29.72 in 7.0 mi Calm Calm - N/A   Scattered Clouds
5:54 AM - - - N/A% 29.73 in 4.0 mi Calm Calm - N/A   Haze
6:16 AM - - - N/A% 29.74 in 2.5 mi Calm Calm - N/A   Clear
6:34 AM - - - N/A% 29.74 in 0.5 mi Calm Calm - N/A Fog Fog
6:54 AM - - - N/A% 29.75 in 4.0 mi Calm Calm - N/A   Haze
7:14 AM - - - N/A% 29.75 in 7.0 mi Calm Calm - N/A   Clear
7:34 AM - - - N/A% 29.76 in 10.0 mi Calm Calm - 0.01 in   Clear
7:54 AM - - - N/A% 29.76 in 10.0 mi Calm Calm - 0.01 in   Clear
8:34 AM - - - N/A% 29.77 in 10.0 mi Calm Calm - N/A   Clear
8:54 AM - - - N/A% 29.76 in 10.0 mi WNW 3.5 mph - N/A   Clear
9:15 AM - - - N/A% 29.76 in 10.0 mi NW 4.6 mph - N/A   Clear
9:54 AM 80.6 °F 83.9 °F 69.8 °F 70% 29.76 in 4.0 mi NW 5.8 mph - 0.01 in   Haze
11:14 AM 82.4 °F 86.3 °F 69.8 °F 66% 29.77 in 10.0 mi NNW 6.9 mph - N/A   Clear
11:55 AM 82.4 °F 86.3 °F 69.8 °F 66% 29.76 in 10.0 mi NW 4.6 mph - N/A   Clear
12:34 PM 84.2 °F 88.4 °F 69.8 °F 62% 29.77 in 10.0 mi West 5.8 mph - N/A   Clear
1:16 PM 84.2 °F 89.6 °F 71.6 °F 66% 29.77 in 10.0 mi NNW 6.9 mph - N/A   Scattered Clouds
1:54 PM 86.0 °F 91.8 °F 71.6 °F 62% 29.77 in 10.0 mi WNW 4.6 mph - N/A   Scattered Clouds
2:14 PM 84.2 °F 88.4 °F 69.8 °F 62% 29.77 in 10.0 mi WNW 6.9 mph - N/A   Scattered Clouds
2:56 PM 86.0 °F 90.4 °F 69.8 °F 58% 29.77 in 10.0 mi NW 4.6 mph - N/A   Scattered Clouds
3:16 PM 87.8 °F 93.8 °F 71.6 °F 58% 29.76 in 10.0 mi NNW 6.9 mph - N/A   Mostly Cloudy
3:56 PM 86.0 °F 90.4 °F 69.8 °F 58% 29.76 in 10.0 mi WNW 3.5 mph - N/A   Scattered Clouds
4:14 PM 87.8 °F 92.6 °F 69.8 °F 55% 29.75 in 10.0 mi NNW 3.5 mph - N/A   Clear
4:34 PM 87.8 °F 93.8 °F 71.6 °F 58% 29.75 in 10.0 mi NNW 4.6 mph - N/A   Clear
4:54 PM 87.8 °F 92.6 °F 69.8 °F 55% 29.74 in 10.0 mi NNW 6.9 mph - N/A   Clear
5:14 PM 87.8 °F 93.8 °F 71.6 °F 58% 29.74 in 10.0 mi NNW 4.6 mph - N/A   Clear
5:35 PM 87.8 °F 92.6 °F 69.8 °F 55% 29.74 in 10.0 mi WNW 3.5 mph - N/A   Clear
5:54 PM 87.8 °F 92.6 °F 69.8 °F 55% 29.75 in 10.0 mi WNW 5.8 mph - N/A   Clear
6:34 PM 86.0 °F 91.8 °F 71.6 °F 62% 29.75 in 10.0 mi NW 4.6 mph - N/A   Clear
7:34 PM 82.4 °F 88.2 °F 73.4 °F 74% 29.76 in 10.0 mi NNW 3.5 mph - N/A   Mostly Cloudy
7:54 PM 80.6 °F 84.6 °F 71.6 °F 74% 29.76 in 10.0 mi Calm Calm - N/A   Scattered Clouds
8:14 PM 80.6 °F 85.4 °F 73.4 °F 79% 29.76 in 10.0 mi Calm Calm - N/A   Scattered Clouds
8:34 PM 80.6 °F 85.4 °F 73.4 °F 79% 29.76 in 10.0 mi Calm Calm - N/A   Scattered Clouds
8:55 PM 80.6 °F 85.4 °F 73.4 °F 79% 29.77 in 10.0 mi Calm Calm - N/A   Scattered Clouds
9:14 PM 78.8 °F - 73.4 °F 83% 29.78 in 10.0 mi Calm Calm - N/A   Mostly Cloudy
10:14 PM 77.0 °F - 73.4 °F 89% 29.80 in 10.0 mi Calm Calm - N/A   Mostly Cloudy
10:35 PM 78.8 °F - 73.4 °F 83% 29.81 in 10.0 mi North 5.8 mph - N/A   Clear
10:54 PM 75.2 °F - 73.4 °F 94% 29.81 in 10.0 mi North 3.5 mph - N/A   Clear
11:34 PM 75.2 °F - 73.4 °F 94% 29.81 in 10.0 mi Calm Calm - N/A   Clear
11:54 PM 75.2 °F - 73.4 °F 94% 29.82 in 10.0 mi North 3.5 mph - N/A   Clear